Вернуться в каталог

STARLINK-3683

АктивенСвязьVLEO
NORAD 53167·PAYLOAD·🇺🇸 United States

Запущен Jul 17, 2022 с Cape Canaveral Space Force Station

Loading…

Ближайшие Пролёты (ближайшие 24 часа)

TLE

СвежийSource: CelesTrak SupGP

Эпоха: Sep 15, 2026, 01:39 UTC

1 53167C 22083AM  26258.06923611 -.00002048  00000+0 -58623-4 0  2589
2 53167  53.1617  13.7251 0001117  82.5429  37.2463 15.35387765    12

Отслеживайте STARLINK-3683 в реальном времени с AllMySat

Download on the App Store